TimeMDT,TemperatureF,Dew PointF,Humidity,Sea Level PressureIn,VisibilityMPH,Wind Direction,Wind SpeedMPH,Gust SpeedMPH,PrecipitationIn,Events,Conditions,WindDirDegrees,DateUTC
12:15 AM,82.4,30.2,15,29.95,10.0,SSE,6.9,-,N/A,,Clear,160,2013-08-03 06:15:00
12:35 AM,82.4,30.2,15,29.95,10.0,South,5.8,-,N/A,,Clear,190,2013-08-03 06:35:00
12:55 AM,80.6,30.2,16,29.95,10.0,SSE,6.9,-,N/A,,Clear,150,2013-08-03 06:55:00
1:15 AM,78.8,30.2,17,29.95,10.0,SE,8.1,-,N/A,,Clear,130,2013-08-03 07:15:00
1:35 AM,80.6,32.0,17,29.95,10.0,SSE,12.7,-,N/A,,Clear,150,2013-08-03 07:35:00
1:55 AM,80.6,32.0,17,29.95,10.0,SE,12.7,-,N/A,,Clear,130,2013-08-03 07:55:00
2:15 AM,78.8,32.0,18,29.95,10.0,ESE,11.5,-,N/A,,Clear,120,2013-08-03 08:15:00
2:35 AM,78.8,32.0,18,29.95,10.0,ESE,9.2,-,N/A,,Clear,120,2013-08-03 08:35:00
2:55 AM,78.8,33.8,20,29.95,10.0,ESE,5.8,-,N/A,,Clear,120,2013-08-03 08:55:00
3:15 AM,78.8,33.8,20,29.96,10.0,East,3.5,-,N/A,,Clear,100,2013-08-03 09:15:00
3:35 AM,78.8,33.8,20,29.96,10.0,East,5.8,-,N/A,,Clear,100,2013-08-03 09:35:00
3:55 AM,78.8,33.8,20,29.97,10.0,SE,4.6,-,N/A,,Clear,140,2013-08-03 09:55:00
4:15 AM,78.8,33.8,20,29.97,10.0,SSE,4.6,-,N/A,,Clear,150,2013-08-03 10:15:00
4:55 AM,75.2,33.8,22,29.97,10.0,SE,8.1,-,N/A,,Clear,140,2013-08-03 10:55:00
5:15 AM,75.2,33.8,22,29.98,10.0,ENE,4.6,-,N/A,,Clear,60,2013-08-03 11:15:00
5:35 AM,75.2,33.8,22,29.98,10.0,North,5.8,-,N/A,,Clear,10,2013-08-03 11:35:00
5:55 AM,75.2,33.8,22,29.99,10.0,NNE,4.6,-,N/A,,Clear,30,2013-08-03 11:55:00
6:15 AM,75.2,35.6,24,30.00,10.0,Calm,Calm,-,N/A,,Clear,0,2013-08-03 12:15:00
6:35 AM,73.4,35.6,25,30.00,10.0,ESE,4.6,-,N/A,,Clear,110,2013-08-03 12:35:00
6:55 AM,73.4,35.6,25,30.01,10.0,ESE,6.9,-,N/A,,Clear,110,2013-08-03 12:55:00
7:35 AM,75.2,37.4,25,30.02,10.0,ESE,5.8,-,N/A,,Clear,120,2013-08-03 13:35:00
7:55 AM,78.8,37.4,23,30.03,10.0,East,5.8,-,N/A,,Clear,90,2013-08-03 13:55:00
8:15 AM,78.8,37.4,23,30.03,10.0,North,5.8,-,N/A,,Clear,350,2013-08-03 14:15:00
8:35 AM,80.6,37.4,21,30.04,10.0,North,4.6,-,N/A,,Clear,10,2013-08-03 14:35:00
8:55 AM,82.4,41.0,23,30.04,10.0,SE,4.6,-,N/A,,Clear,130,2013-08-03 14:55:00
9:15 AM,82.4,41.0,23,30.05,10.0,Calm,Calm,-,N/A,,Clear,0,2013-08-03 15:15:00
9:35 AM,84.2,42.8,23,30.05,10.0,SE,3.5,-,N/A,,Clear,130,2013-08-03 15:35:00
9:55 AM,87.8,42.8,21,30.05,10.0,Calm,Calm,-,N/A,,Clear,0,2013-08-03 15:55:00
10:15 AM,87.8,42.8,21,30.04,10.0,Calm,Calm,-,N/A,,Clear,0,2013-08-03 16:15:00
10:35 AM,89.6,42.8,20,30.04,10.0,Calm,Calm,-,N/A,,Clear,0,2013-08-03 16:35:00
10:55 AM,91.4,42.8,18,30.04,10.0,East,3.5,-,N/A,,Clear,90,2013-08-03 16:55:00
11:15 AM,91.4,42.8,18,30.04,10.0,Calm,Calm,-,N/A,,Clear,0,2013-08-03 17:15:00
11:35 AM,93.2,42.8,17,30.03,10.0,SW,3.5,-,N/A,,Clear,220,2013-08-03 17:35:00
11:55 AM,93.2,42.8,17,30.03,10.0,SSE,3.5,-,N/A,,Clear,150,2013-08-03 17:55:00
12:15 PM,93.2,42.8,17,30.02,10.0,WNW,3.5,-,N/A,,Clear,300,2013-08-03 18:15:00
12:35 PM,95.0,42.8,16,30.01,10.0,SSW,8.1,-,N/A,,Clear,210,2013-08-03 18:35:00
12:55 PM,95.0,42.8,16,30.01,10.0,Calm,Calm,-,N/A,,Clear,0,2013-08-03 18:55:00
1:15 PM,96.8,42.8,16,30.00,10.0,SE,4.6,-,N/A,,Clear,130,2013-08-03 19:15:00
1:35 PM,96.8,42.8,16,29.99,10.0,SSW,3.5,-,N/A,,Clear,210,2013-08-03 19:35:00
1:55 PM,96.8,39.2,14,29.99,10.0,Calm,Calm,-,N/A,,Clear,0,2013-08-03 19:55:00
2:15 PM,98.6,39.2,13,29.98,10.0,ENE,8.1,-,N/A,,Clear,60,2013-08-03 20:15:00
2:35 PM,98.6,39.2,13,29.97,10.0,SW,11.5,20.7,N/A,,Clear,220,2013-08-03 20:35:00
2:55 PM,100.4,37.4,11,29.97,10.0,WSW,15.0,21.9,N/A,,Clear,250,2013-08-03 20:55:00
3:15 PM,100.4,37.4,11,29.96,10.0,SW,18.4,-,N/A,,Clear,220,2013-08-03 21:15:00
3:35 PM,100.4,37.4,11,29.95,10.0,SW,18.4,24.2,N/A,,Clear,220,2013-08-03 21:35:00
3:55 PM,100.4,35.6,11,29.95,10.0,WSW,16.1,21.9,N/A,,Clear,240,2013-08-03 21:55:00
4:15 PM,100.4,35.6,11,29.94,10.0,SW,15.0,23.0,N/A,,Clear,230,2013-08-03 22:15:00
4:35 PM,100.4,35.6,11,29.94,10.0,SW,13.8,21.9,N/A,,Clear,220,2013-08-03 22:35:00
4:55 PM,100.4,35.6,11,29.93,10.0,West,11.5,23.0,N/A,,Clear,270,2013-08-03 22:55:00
5:15 PM,100.4,35.6,11,29.93,10.0,West,8.1,18.4,N/A,,Clear,260,2013-08-03 23:15:00
5:35 PM,100.4,35.6,11,29.93,10.0,WNW,10.4,-,N/A,,Clear,290,2013-08-03 23:35:00
5:55 PM,100.4,35.6,11,29.93,10.0,WSW,10.4,20.7,N/A,,Clear,250,2013-08-03 23:55:00
6:15 PM,100.4,35.6,11,29.92,10.0,West,9.2,20.7,N/A,,Clear,260,2013-08-04 00:15:00
6:35 PM,98.6,35.6,11,29.92,10.0,WSW,11.5,16.1,N/A,,Clear,240,2013-08-04 00:35:00
6:55 PM,98.6,35.6,11,29.91,10.0,WSW,9.2,16.1,N/A,,Clear,240,2013-08-04 00:55:00
7:15 PM,98.6,35.6,11,29.91,10.0,WNW,9.2,-,N/A,,Clear,290,2013-08-04 01:15:00
7:35 PM,98.6,35.6,11,29.91,10.0,West,10.4,-,N/A,,Clear,270,2013-08-04 01:35:00
7:55 PM,98.6,33.8,10,29.92,10.0,West,8.1,-,N/A,,Clear,270,2013-08-04 01:55:00
8:15 PM,96.8,33.8,11,29.92,10.0,West,12.7,-,N/A,,Clear,270,2013-08-04 02:15:00
8:35 PM,96.8,33.8,11,29.92,10.0,West,11.5,-,N/A,,Clear,260,2013-08-04 02:35:00
8:55 PM,95.0,32.0,11,29.93,10.0,West,9.2,-,N/A,,Clear,280,2013-08-04 02:55:00
9:15 PM,93.2,32.0,11,29.94,10.0,West,9.2,-,N/A,,Clear,280,2013-08-04 03:15:00
9:35 PM,93.2,32.0,11,29.95,10.0,West,6.9,-,N/A,,Clear,280,2013-08-04 03:35:00
9:55 PM,91.4,32.0,12,29.95,10.0,WNW,3.5,-,N/A,,Clear,290,2013-08-04 03:55:00
10:35 PM,89.6,30.2,12,29.96,10.0,Calm,Calm,-,N/A,,Clear,0,2013-08-04 04:35:00
10:55 PM,84.2,30.2,14,29.97,10.0,SSE,3.5,-,N/A,,Clear,160,2013-08-04 04:55:00
11:15 PM,86.0,30.2,13,29.97,10.0,SSE,5.8,-,N/A,,Clear,160,2013-08-04 05:15:00
11:35 PM,84.2,30.2,14,29.97,10.0,SSE,9.2,-,N/A,,Clear,150,2013-08-04 05:35:00
11:55 PM,82.4,30.2,15,29.97,10.0,SSE,5.8,-,N/A,,Clear,160,2013-08-04 05:55:00